Regional Weather Roundup
Issued by NWS

Home | Current Version | Previous Version | Text Only | Print | Product List | Glossary On
Versions: 1 2 3 4 5 6 7 8 9 10 11 12 13 14 15 16 17 18 19 20 21 22 23 24 25 26 27 28 29 30 31 32 33 34 35 36 37 38 39 40 41 42 43 44 45 46 47 48 49 50
000
ASUS43 KMPX 050610
RWRMN
WEATHER ROUNDUP FOR MINNESOTA
NATIONAL WEATHER SERVICE TWIN CITIES/CHANHASSEN MN
100 AM CDT SUN JUL 05 2015


NOTE: "FAIR" INDICATES FEW OR NO CLOUDS BELOW 12,000 FEET WITH NO
SIGNIFICANT WEATHER AND/OR OBSTRUCTIONS TO VISIBILITY. N/A MEANS
CURRENT SKY AND/OR WEATHER CONDITIONS ARE NOT AVAILABLE.

MNZ060>063-068>070-050700-
   Twin Cities Metro

CITY           SKY/WX    TMP DP  RH WIND       PRES   REMARKS
TWIN CITIES    CLEAR     73  60  63 S10       29.94F
6HR MIN TEMP:  73; 6HR MAX TEMP:  83;

ST PAUL        CLEAR     68  64  87 SE8       29.95S
CRYSTAL        CLEAR     71  61  70 S7        29.92F
BLAINE         CLEAR     72  63  73 S6        29.93F
LAKEVILLE      CLEAR     63  61  94 S3        29.96F
EDEN PRAIRIE   CLEAR     68  60  75 S6        29.93F
6HR MIN TEMP:  68; 6HR MAX TEMP:  81;

SOUTH ST PAUL  CLEAR     69  62  77 S3        29.95F
LAKE ELMO      FAIR      68  63  83 S7        29.97S
$$
MNZ001>005-007-008-013>017-022>024-027-028-050700-
   Northwest Minnesota

CITY           SKY/WX    TMP DP  RH WIND       PRES   REMARKS
BEMIDJI        MOCLDY    71  65  80 S7        29.84R
HALLOCK        TSTM      66  64  94 NE10      29.77F
ROSEAU         TSTM      63  57  82 SE3       29.81R
WARROAD        CLOUDY    64  61  88 E12       29.80F
THIEF RVR FALL CLOUDY    72  64  78 S9        29.76S THUNDER
CROOKSTON      CLOUDY    75  64  69 S17       29.73F
FOSSTON        MOCLDY    70  63  78 S12       29.81S
DETROIT LAKES  PTCLDY    72  63  73 S8        29.83S
MOORHEAD       MOCLDY    73  64  73 S10       29.80R
PARK RAPIDS    MOCLDY    71  64  78 S7        29.85R
MAHNOMEN       FAIR      71  64  78 S8        29.81R
$$
MNZ006-009>011-018-025>026-050700-
   North Central Minnesota

CITY           SKY/WX    TMP DP  RH WIND       PRES   REMARKS
BAUDETTE       CLOUDY    62  60  93 SE5       29.84F
INTL FALLS     CLOUDY    65  62  90 S5        29.86R
6HR MIN TEMP:  64; 6HR MAX TEMP:  78; 6HR PCP:  0.05;

WASKISH        CLOUDY    70  63  78 NE9       29.83S
BIG FORK       MOCLDY    68  63  83 SE3       29.87R HAZE
LONGVILLE      PTCLDY    68  66  94 S7        29.85R FOG
GRAND RAPIDS   MOCLDY    64  61  88 SE5       29.88S
CRANE LAKE     CLOUDY    64  57  77 S3        29.89R
ORR            CLOUDY    64  55  72 CALM      29.86R
COOK           MOCLDY    64  57  77 CALM      29.89R
WALKER         FAIR      72  65  78 S5        29.85R
$$
MNZ012-019>021-037-050700-
   Northeast Minnesota

CITY           SKY/WX    TMP DP  RH WIND       PRES   REMARKS
DULUTH         CLEAR     59  56  89 SE9       29.92F
6HR MIN TEMP:  59; 6HR MAX TEMP:  70;

ELY            PTCLDY    61  52  72 S3        29.90S
HIBBING        MOCLDY    60  56  86 CALM      29.89F
DULUTH HARBOR  CLEAR     61  57  88 E7        29.93F
TWO HARBORS    CLEAR     59  54  82 CALM      29.91F
SILVER BAY     CLEAR     55  54  94 CALM      29.90F
GRAND MARAIS     N/A     54  51  90 NE3       29.91F
G MARAIS ARPRT CLEAR     52  46  82 CALM      29.96F
$$
MNZ029>031-032-039>041-046>048-054>057-064-050700-
   West Central Minnesota

CITY           SKY/WX    TMP DP  RH WIND       PRES   REMARKS
FERGUS FALLS   PTCLDY    72  64  78 S9        29.81R
WHEATON        MOCLDY    70  63  78 SE10      29.82R
MORRIS         PTCLDY    70  64  83 S12       29.82F HAZE
ALEXANDRIA     PTCLDY    69  64  84 S9        29.85F
ELBOW LAKE     FAIR      70  65  84 S13       29.83R
WADENA         PTCLDY    70  63  78 S8        29.84R
GLENWOOD       CLEAR     66  63  88 SE9       29.86F
APPLETON       PTCLDY    72  64  78 S8        29.83F
BENSON         CLEAR     70  63  78 S7        29.85F
ORTONVILLE     PTCLDY    70  64  83 SE7       29.83S
MADISON        PTCLDY    70  63  78 SE8       29.84F
WILLMAR        FAIR      68  63  83 S6        29.89F
$$
MNZ033>034-036-042>043-049>051-058-059-050700-
   Central Minnesota

CITY           SKY/WX    TMP DP  RH WIND       PRES   REMARKS
ST CLOUD       CLEAR     67  64  90 S7        29.89F FOG
6HR MIN TEMP:  66; 6HR MAX TEMP:  82;

SAUK CENTRE    FAIR      65  64  93 SE6       29.87F FOG
PAYNESVILLE    CLEAR     66  62  86 E8        29.89F
AITKIN         PTCLDY    72  64  78 S7        29.86F
PINE RIVER     PTCLDY    70  64  83 S8        29.88F
BRAINERD       PTCLDY    70  64  81 S12       29.86F HAZE
STAPLES        PTCLDY    68  63  83 S9        29.84F
LONG PRAIRIE   FAIR      64  63  94 SE9       29.86F
LITTLE FALLS   CLEAR     68  63  83 SE5       29.87F
LITCHFIELD     CLEAR     70  64  83 SE5       29.90F
BUFFALO        CLEAR     69  61  75 S5        29.92F
MAPLE LAKE     CLEAR     68  64  87 S5        29.92F
$$
MNZ037-044-045-052-053-050700-
   East Central Minnesota

CITY           SKY/WX    TMP DP  RH WIND       PRES   REMARKS
PRINCETON      CLEAR     70  63  78 SE8       29.90F
MORA           CLEAR     68  63  83 S5        29.92F
CAMBRIDGE      CLEAR     72  61  68 SE6       29.89F
RUSH CITY      PTCLDY    67  64  90 SE5       29.92F
MOOSE LAKE     CLEAR     59  55  88 NE3       29.89F
HINCKLEY       FAIR      68  66  94 S6        29.91F FOG
CLOQUET        CLEAR     57  55  94 SE6       29.91F FOG
MCGREGOR       PTCLDY    66  64  94 SE7       29.89F
$$
MNZ071>073-080-081-089-090-097-098-050700-
   Southwest Minnesota

CITY           SKY/WX    TMP DP  RH WIND       PRES   REMARKS
MONTEVIDEO     PTCLDY    68  64  88 S8        29.86F
GRANITE FALLS  CLEAR     67  62  86 SE7       29.88F
CANBY          PTCLDY    67  64  88 SE6       29.86S
MARSHALL       PTCLDY    68  59  73 S12         N/A
REDWOOD FALLS  CLEAR     66  61  84 S8        29.89F
OLIVIA         CLEAR     64  59  82 SE8       29.88F
PIPESTONE      PTCLDY    68  63  83 S9        29.90F
WINDOM         CLEAR     66  61  82 S7        29.93F
WORTHINGTON    CLEAR     66  57  72 S10       29.93F
JACKSON        CLEAR     66  61  82 S10       29.95F
TRACY          CLEAR     69  62  76 S13       29.89F
SLAYTON        CLEAR     65  62  90 CALM      29.92F
$$
MNZ065>067-074>077-082>085-091>093-050700-
   South Central Minnesota

CITY           SKY/WX    TMP DP  RH WIND       PRES   REMARKS
MANKATO        CLEAR     64  59  82 S9        29.95F
NEW ULM        CLEAR     64  61  88 S7        29.92F
ST JAMES       CLEAR     66  61  82 SE8       29.94F
FAIRMONT       CLEAR     63  55  77 S8        29.95F
GLENCOE        CLEAR     69  63  80 SE5       29.92F
FARIBAULT      CLEAR     64  61  88 S3        29.97F
OWATONNA       CLEAR     66  59  77 SE9       29.98S
WASECA         CLEAR     63  57  82 SE7       29.99R
ALBERT LEA     CLEAR     66  61  82 S6        29.99S
$$
MNZ078>079-086>088-094>096-050700-
   Southeast Minnesota

CITY           SKY/WX    TMP DP  RH WIND       PRES   REMARKS
ROCHESTER      CLEAR     62  59  90 S8        30.02R
6HR MIN TEMP:  62; 6HR MAX TEMP:  77;

RED WING       CLEAR     66  61  82 CALM      29.97R
STANTON        CLEAR     66  61  82 S3        29.96S
DODGE CENTER   CLEAR     63  61  94 S7        30.00S
WINONA         CLEAR     70  63  78 CALM      29.99R
AUSTIN         CLEAR     64  61  88 S3        30.01R
PRESTON        CLEAR     64  59  82 SW6       30.02R
$$
ABBREVIATIONS USED IN REMARKS
   TC - TEMPERATURES IN CELSIUS
  WCI - WIND CHILL INDEX
   HX - HEAT INDEX
  VSB - VISIBILITY
$$



USA.gov is the U.S. government's official web portal to all federal, state and local government web resources and services.